Powrót do katalogu

COSMOS 1932 FUEL CORE

AktywnyLEO
NORAD 19162·DEBRIS·🇷🇺 Russia

Wystrzelony Mar 14, 1988 z Baikonur Cosmodrome

Loading…

Następne Przeloty (najbliższe 24 godziny)

TLE

ŚwieżeSource: Space-Track

Epoka: Sep 14, 2026, 13:38 UTC

1 19162U 88019D   26257.56851763 -.00000079  00000-0  85541-5 0  9993
2 19162  65.0463   6.2216 0025503 205.6618 166.8498 13.83935685936477

Śledź COSMOS 1932 FUEL CORE w czasie rzeczywistym z AllMySat

Download on the App Store